Japanese version Home page |
Updated on August 22, 2010 |
Profile |
Orbital ElementsEpoch 2010 May 4.0 TT = JDT 2455320.5 T 2010 Apr. 19.89211 TT MPC q 0.0475735 (2000.0) P Q n 0.18124419 Peri. 24.86064 -0.19325801 -0.89747800 a 3.0923833 Node 78.34830 +0.81884425 -0.37013981 e 0.9846159 Incl. 23.87902 +0.54050479 +0.23985364 P 5.44
|
Magnitudes Graphm1 = 24.0 + 5 log d + 15.0 log r
|
The orbital elements are published on M.P.E.C. 2010-J28.
|